N7QNM-13 Weather Reports


time (UTC)temp
C
wind
direction
speed
KPH
gust
KPH
rain 1hr
cm
rain 24hr
cm
rain mn
cm
humidity
%
barometer
mb
20260903200057 21 202 12.9 20.9 0.00 0.74 0.00 43 1010.0
20260903195037 20 142 11.3 17.7 0.00 0.74 0.00 43 1010.1
20260903194037 20 156 16.1 20.9 0.00 0.74 0.00 46 1010.2
20260903193037 20 172 11.3 17.7 0.00 0.74 0.00 46 1010.2
20260903192039 20 180 17.7 19.3 0.00 0.74 0.00 47 1010.2
20260903191039 20 152 12.9 19.3 0.00 0.74 0.00 48 1010.3
20260903190037 20 160 14.5 19.3 0.00 0.74 0.00 48 1010.5
20260903185058 20 148 16.1 20.9 0.00 0.74 0.00 49 1010.6
20260903184038 20 148 12.9 17.7 0.00 0.74 0.00 52 1010.7
20260903183059 19 157 17.7 22.5 0.00 0.74 0.00 55 1010.7
20260903182038 18 137 12.9 19.3 0.00 0.74 0.00 54 1010.7
20260903181040 18 154 14.5 17.7 0.00 0.74 0.00 54 1010.7
20260903180038 18 160 16.1 20.9 0.00 0.74 0.00 57 1010.8
20260903175039 18 158 14.5 17.7 0.00 0.74 0.00 58 1010.8
20260903174039 18 167 12.9 17.7 0.00 0.74 0.00 58 1010.9
20260903173039 18 166 11.3 14.5 0.00 0.74 0.00 58 1011.0
20260903172038 18 171 8.0 11.3 0.00 0.74 0.00 58 1011.1
20260903171040 18 208 8.0 16.1 0.00 0.74 0.00 56 1011.0
20260903170040 17 189 6.4 9.7 0.00 0.74 0.00 57 1011.1
20260903165039 16 163 12.9 16.1 0.00 0.74 0.00 62 1011.0
20260903164039 15 170 11.3 19.3 0.00 0.74 0.00 64 1011.0
20260903163040 15 164 11.3 14.5 0.00 0.74 0.00 63 1011.0
20260903162040 15 180 11.3 14.5 0.00 0.74 0.00 64 1011.0
20260903161040 15 176 11.3 16.1 0.00 0.74 0.00 66 1011.0
20260903160041 15 214 8.0 12.9 0.00 0.74 0.00 65 1011.0
20260903155100 14 172 12.9 19.3 0.00 0.74 0.00 67 1011.0
20260903154122 13 158 8.0 14.5 0.00 0.74 0.00 67 1010.9
20260903153040 13 185 12.9 20.9 0.00 0.74 0.00 67 1011.0
20260903152040 13 171 12.9 17.7 0.00 0.74 0.00 67 1011.1
20260903151040 13 183 9.7 12.9 0.00 0.74 0.00 67 1011.0
20260903145042 13 179 9.7 14.5 0.00 0.74 0.00 75 1011.1
20260903144040 13 99 1.6 4.8 0.00 0.74 0.00 83 1011.1
20260903143041 12 0.0 0.0 0.00 0.74 0.00 85 1011.0
20260903142041 11 0.0 4.8 0.00 0.74 0.00 86 1010.9
20260903141042 11 108 1.6 3.2 0.00 0.74 0.00 87 1010.8
20260903140041 10 0.0 0.0 0.00 0.74 0.00 87 1010.7
20260903135122 10 113 1.6 4.8 0.00 0.74 0.00 87 1010.7
20260903134041 10 135 3.2 4.8 0.00 0.74 0.00 86 1010.6
20260903133041 10 0.0 1.6 0.00 0.74 0.00 86 1010.5
20260903132043 10 105 1.6 4.8 0.00 0.74 0.00 85 1010.4
20260903131042 9 50 3.2 4.8 0.00 0.74 0.00 85 1010.3
20260903130043 9 152 1.6 3.2 0.00 0.74 0.00 84 1010.3
20260903125043 9 343 1.6 4.8 0.00 0.74 0.00 83 1010.3
20260903124043 9 0.0 0.0 0.00 0.74 0.00 83 1010.4
20260903123047 9 103 0.0 3.2 0.00 0.74 0.00 82 1010.3
20260903122042 9 0.0 0.0 0.00 0.74 0.00 81 1010.3
20260903121042 8 203 1.6 4.8 0.00 0.74 0.00 80 1010.3
20260903120044 9 351 0.0 1.6 0.00 0.74 0.00 79 1010.2
20260903115044 9 164 1.6 3.2 0.00 0.74 0.00 78 1010.1
20260903114042 10 184 3.2 4.8 0.00 0.74 0.00 77 1010.1
20260903113042 10 190 3.2 4.8 0.00 0.74 0.00 76 1010.1
20260903112044 10 183 1.6 4.8 0.00 0.74 0.00 74 1010.0
20260903111044 11 0.0 0.0 0.00 0.74 0.00 72 1009.9
20260903110043 11 208 1.6 4.8 0.00 0.74 0.00 70 1009.8
20260903105043 12 195 4.8 8.0 0.00 0.74 0.00 68 1009.7
20260903104043 12 238 3.2 4.8 0.00 0.74 0.00 65 1009.6
20260903103043 13 324 6.4 14.5 0.00 0.74 0.00 66 1009.4
20260903102044 13 178 16.1 17.7 0.00 0.74 0.00 67 1009.1
20260903101044 13 180 11.3 19.3 0.00 0.74 0.00 65 1009.0
20260903100044 13 164 16.1 24.1 0.00 0.74 0.00 68 1008.8
20260903095043 13 173 9.7 16.1 0.00 0.74 0.00 70 1009.0
20260903094104 13 168 11.3 19.3 0.00 0.74 0.00 71 1009.0
20260903093043 13 180 11.3 16.1 0.00 0.74 0.00 70 1008.9
20260903092105 14 176 11.3 14.5 0.00 0.74 0.00 67 1009.1
20260903091046 15 182 11.3 17.7 0.00 0.74 0.00 64 1009.1
20260903090044 15 203 9.7 12.9 0.00 0.74 0.00 63 1009.0
20260903085125 15 187 11.3 17.7 0.00 0.74 0.00 63 1009.0
20260903084044 15 204 8.0 12.9 0.00 0.74 0.00 64 1009.0
20260903083046 15 214 8.0 9.7 0.00 0.74 0.00 64 1009.0
20260903082044 15 160 8.0 12.9 0.00 0.74 0.00 63 1008.9
20260903081044 15 203 6.4 11.3 0.00 0.74 0.00 64 1008.6
20260903080045 15 197 8.0 12.9 0.00 0.74 0.00 68 1008.5
20260903075107 15 181 8.0 12.9 0.00 0.74 0.00 71 1008.4
20260903074044 15 172 8.0 12.9 0.00 0.74 0.00 71 1008.4
20260903073045 15 175 8.0 12.9 0.00 0.74 0.00 74 1008.3
20260903072045 15 176 9.7 16.1 0.00 0.74 0.00 76 1008.3
20260903071045 15 155 16.1 20.9 0.03 0.74 0.00 78 1008.5
20260903070107 15 153 11.3 14.5 0.03 0.74 0.00 80 1008.5
20260903065046 15 165 8.0 14.5 0.03 0.74 0.74 79 1008.5
20260903064045 15 181 4.8 8.0 0.05 0.74 0.74 80 1008.4
20260903063045 15 148 3.2 8.0 0.05 0.74 0.74 82 1008.5
20260903062108 15 154 4.8 9.7 0.05 0.74 0.74 83 1008.4
20260903061107 15 168 8.0 12.9 0.03 0.71 0.71 83 1008.5
20260903060046 15 164 9.7 16.1 0.03 0.71 0.71 83 1008.4
20260903055047 15 175 12.9 17.7 0.03 0.69 0.69 83 1008.3
20260903054046 16 165 14.5 20.9 0.03 0.69 0.69 82 1008.3
20260903053047 16 164 14.5 17.7 0.05 0.69 0.69 81 1008.3
20260903052107 15 191 17.7 25.7 0.05 0.69 0.69 82 1008.3
20260903051048 15 174 16.1 20.9 0.08 0.69 0.69 82 1008.2
20260903050048 15 169 14.5 20.9 0.10 0.69 0.69 83 1008.4
20260903045106 15 160 11.3 16.1 0.10 0.66 0.66 83 1008.5
20260903044048 15 171 14.5 20.9 0.10 0.66 0.66 83 1008.3
20260903043046 15 152 14.5 19.3 0.08 0.64 0.64 83 1008.2
20260903042046 16 185 14.5 19.3 0.08 0.61 0.61 82 1008.2
20260903041048 16 171 20.9 24.1 0.05 0.61 0.61 81 1008.1
20260903040048 16 151 20.9 25.7 0.05 0.58 0.58 81 1008.1
20260903035048 16 137 20.9 25.7 0.05 0.56 0.56 80 1007.9
20260903034049 16 143 20.9 27.4 0.05 0.56 0.56 79 1007.8
20260903033049 16 158 19.3 27.4 0.08 0.56 0.56 79 1007.8
20260903032049 16 154 17.7 24.1 0.08 0.56 0.56 79 1007.8
20260903031047 16 169 17.7 27.4 0.08 0.53 0.53 79 1007.8
20260903030047 16 147 19.3 24.1 0.10 0.53 0.53 79 1007.7
20260903025047 16 145 19.3 22.5 0.08 0.51 0.51 78 1007.7
20260903024047 16 152 17.7 27.4 0.08 0.51 0.51 77 1007.7
20260903023048 16 136 12.9 17.7 0.08 0.48 0.48 77 1007.8
20260903022048 16 164 12.9 17.7 0.08 0.48 0.48 77 1007.9
20260903021049 16 160 14.5 20.9 0.08 0.46 0.46 77 1007.9
20260903020049 15 164 12.9 19.3 0.08 0.46 0.46 78 1008.1
20260903015048 15 162 12.9 17.7 0.13 0.43 0.43 78 1007.9
20260903014049 16 159 12.9 16.1 0.13 0.43 0.43 77 1008.0
20260903013050 16 168 14.5 20.9 0.15 0.41 0.41 76 1008.1
20260903012050 16 167 12.9 17.7 0.18 0.41 0.41 76 1008.1
20260903011110 16 185 11.3 16.1 0.20 0.38 0.38 76 1008.1
20260903010048 16 144 16.1 20.9 0.20 0.36 0.36 74 1008.1
20260903005049 16 158 14.5 17.7 0.20 0.33 0.33 74 1008.0
20260903004131 16 180 16.1 19.3 0.20 0.30 0.30 73 1007.9
20260903003051 16 170 17.7 25.7 0.18 0.25 0.25 72 1007.8
20260903002050 16 178 16.1 24.1 0.13 0.20 0.20 72 1007.9
20260903001150 16 178 11.3 16.1 0.13 0.18 0.18 71 1007.9
20260903000051 17 175 14.5 19.3 0.13 0.15 0.15 68 1007.8
20260902235049 17 204 12.9 20.9 0.08 0.13 0.13 66 1007.6
20260902234051 17 92 17.7 22.5 0.08 0.10 0.10 64 1007.4
20260902233550 17 172 17.7 24.1 0.05 0.10 0.10 63 1007.5
20260902232550 18 205 12.9 27.4 0.05 0.08 0.08 63 1007.5
20260902231550 19 184 19.3 24.1 0.03 0.05 0.05 57 1007.5
20260902230611 19 207 16.1 24.1 0.00 0.03 0.03 50 1007.4
20260902225550 20 180 12.9 19.3 0.00 0.03 0.03 50 1007.6
20260902225050 20 213 14.5 20.9 0.00 0.03 0.03 49 1007.6
20260902224050 20 238 14.5 24.1 0.00 0.03 0.03 47 1007.7
20260902223051 20 187 11.3 20.9 0.03 0.03 0.03 46 1007.7
20260902222052 20 215 12.9 19.3 0.03 0.03 0.03 46 1007.7
20260902221052 20 214 12.9 20.9 0.03 0.03 0.03 49 1007.6
20260902220112 19 217 19.3 32.2 0.03 0.03 0.03 51 1007.6
20260902215052 20 213 17.7 30.6 0.03 0.03 0.03 56 1007.6
20260902214051 22 196 14.5 20.9 0.03 0.03 0.03 52 1007.6
20260902213051 23 177 14.5 19.3 0.00 0.00 0.00 42 1007.0
20260902212051 23 177 14.5 20.9 0.00 0.00 0.00 39 1006.7
20260902211052 24 187 12.9 22.5 0.00 0.00 0.00 39 1006.5
20260902210113 25 169 14.5 20.9 0.00 0.00 0.00 37 1006.4
20260902205051 26 166 14.5 22.5 0.00 0.00 0.00 35 1006.3
20260902204052 26 215 9.7 19.3 0.00 0.00 0.00 35 1006.3
20260902203052 26 179 9.7 17.7 0.00 0.00 0.00 36 1006.3
20260902202113 25 124 11.3 20.9 0.00 0.00 0.00 37 1006.4
20260902201052 25 219 11.3 20.9 0.00 0.00 0.00 37 1006.5